This is the latest recevied weather packets stored in our database for station/object WD7OO. If no packets are shown the sender has not sent any weather packets the latest 10 day(s).
| Time | Temp. | Humidity | Pressure | Rain* | Wind** | Luminosity | Snow |
|---|---|---|---|---|---|---|---|
| 1778112869 | 11.67° C | 47% | 1013.4 hPa | 0 mm | - | 6 W/m² | - |
| 1778112566 | 11.67° C | 48% | 1013.7 hPa | 0 mm | - | 3 W/m² | - |
| 1778112262 | 11.67° C | 47% | 1013.8 hPa | 0 mm | - | 9 W/m² | - |
| 1778111957 | 11.67° C | 46% | 1013.5 hPa | 0 mm | - | 25 W/m² | - |
| 1778111655 | 11.67° C | 48% | 1013.6 hPa | 0 mm | - | 30 W/m² | - |
| 1778111350 | 11.67° C | 46% | 1013.7 hPa | 0 mm | - | 17 W/m² | - |
| 1778111049 | 11.67° C | 45% | 1013.5 hPa | 0 mm | - | 17 W/m² | - |
| 1778110746 | 11.67° C | 47% | 1013.5 hPa | 0 mm | - | 24 W/m² | - |
| 1778110441 | 12.22° C | 45% | 1013.6 hPa | 0 mm | - | 39 W/m² | - |
| 1778110138 | 12.22° C | 45% | 1013.5 hPa | 0 mm | - | 54 W/m² | - |
| 1778109834 | 12.22° C | 45% | 1013.4 hPa | 0 mm | - | 48 W/m² | - |
| 1778109531 | 12.22° C | 47% | 1013.5 hPa | 0 mm | - | 47 W/m² | - |
| 1778109229 | 12.22° C | 45% | 1013.6 hPa | 0 mm | - | 63 W/m² | - |
| 1778108926 | 12.22° C | 45% | 1013.6 hPa | 0 mm | - | 59 W/m² | - |
| 1778108622 | 12.22° C | 44% | 1013.6 hPa | 0 mm | - | 51 W/m² | - |
| 1778108318 | 12.22° C | 43% | 1013.5 hPa | 0 mm | - | 55 W/m² | - |
| 1778108016 | 12.22° C | 43% | 1013.6 hPa | 0 mm | - | 74 W/m² | - |
| 1778107707 | 12.22° C | 45% | 1013.7 hPa | 0 mm | - | 77 W/m² | - |
| 1778107405 | 12.22° C | 46% | 1013.8 hPa | 0 mm | - | 99 W/m² | - |
| 1778107100 | 12.22° C | 43% | 1013.8 hPa | 0 mm | - | 95 W/m² | - |
| 1778106795 | 12.22° C | 43% | 1013.8 hPa | 0 mm | - | 106 W/m² | - |
| 1778106493 | 12.78° C | 42% | 1013.5 hPa | 0 mm | - | 125 W/m² | - |
| 1778106188 | 12.78° C | 44% | 1013.5 hPa | 0 mm | - | 137 W/m² | - |
| 1778105887 | 12.78° C | 45% | 1013.4 hPa | 0 mm | - | 161 W/m² | - |
| 1778105584 | 12.78° C | 43% | 1013.5 hPa | 0 mm | - | 147 W/m² | - |
* Rain latest hour (hover to see other rain measurements)
** Current wind speed in m/s (hover to see current wind gust speed)